Location: Darlington Observatory
(36.4817°N, 105.8156°W)
Time: 17:12:47
(UTC-07:00)

MOS 1 - Visible Passes

Search period start: 22 November 2017 00:00
Search period end: 02 December 2017 00:00
Orbit: 879 x 891 km, 99.3° (Epoch: 22 November)

Date Brightness Start Highest point End Pass type
(mag) Time Alt. Az. Time Alt. Az. Time Alt. Az.
22 Nov 6.5 06:21:06 10° NE 06:26:04 31° E 06:30:59 10° SSE visible
22 Nov 4.4 17:49:18 10° SE 17:54:48 51° ENE 18:00:18 10° N visible
22 Nov 6.7 19:32:21 10° SW 19:36:22 20° W 19:40:24 10° NW visible
23 Nov 6.6 06:19:24 10° NE 06:24:18 29° E 06:29:09 10° SSE visible
23 Nov 4.5 17:47:35 10° SE 17:53:03 49° ENE 17:58:32 10° N visible
23 Nov 6.7 19:30:29 10° SW 19:34:35 20° W 19:38:44 10° NW visible
24 Nov 6.7 06:17:42 10° NE 06:22:32 28° E 06:27:19 10° SSE visible
24 Nov 4.5 17:45:53 10° SE 17:51:18 47° ENE 17:56:45 10° N visible
24 Nov 6.6 19:28:36 10° SW 19:32:49 21° W 19:37:04 10° NW visible
25 Nov 6.7 06:16:00 10° NE 06:20:46 27° E 06:25:28 10° SSE visible
25 Nov 4.5 17:44:11 10° SE 17:49:34 46° ENE 17:54:58 10° N visible
25 Nov 6.6 19:26:44 10° SW 19:31:03 22° W 19:35:23 10° NW visible
26 Nov 6.8 06:14:18 10° NE 06:19:00 26° E 06:23:38 10° SSE visible
26 Nov 4.6 17:42:28 10° SE 17:47:49 44° ENE 17:53:11 10° N visible
26 Nov 6.5 19:24:53 10° SW 19:29:17 23° W 19:33:43 10° NW visible
27 Nov 6.9 06:12:37 10° NE 06:17:13 25° E 06:21:47 10° SSE visible
27 Nov 4.6 17:40:45 10° SE 17:46:04 42° ENE 17:51:24 10° N visible
27 Nov 6.5 19:23:01 10° SSW 19:27:31 24° W 19:32:02 10° NW visible
28 Nov 6.9 06:10:56 10° NE 06:15:27 24° E 06:19:56 10° SSE visible
28 Nov 4.7 17:39:04 10° SE 17:44:20 41° ENE 17:49:38 10° N visible
28 Nov 6.4 19:21:10 10° SSW 19:25:44 25° W 19:30:21 10° NW visible
29 Nov 7.0 06:09:15 10° NE 06:13:40 23° E 06:18:04 10° SSE visible
29 Nov 4.7 17:37:22 10° SE 17:42:35 39° ENE 17:47:50 10° N visible
29 Nov 6.3 19:19:19 10° SSW 19:23:58 26° W 19:28:40 10° NW visible
30 Nov 7.0 06:07:34 10° NE 06:11:54 22° E 06:16:12 10° SE visible
30 Nov 4.8 17:35:40 10° SE 17:40:50 38° ENE 17:46:03 10° N visible
30 Nov 6.3 19:17:29 10° SSW 19:22:12 27° W 19:26:58 10° NW visible
01 Dec 7.1 06:05:53 10° NE 06:10:08 21° E 06:14:20 10° SE visible
01 Dec 4.8 17:33:58 10° SE 17:39:06 36° ENE 17:44:15 10° N visible
01 Dec 6.2 19:15:38 10° SSW 19:20:26 28° W 19:25:16 10° NW visible
